Evansville, IN

8:55 PM CST on January 22, 2018 (GMT -0600)
Evansville Regional

Weather History for KEVV - September, 2011

Change the Weather History Date:

Tuesday, September 20, 2011

  Actual Average Record
Temperature  
Mean Temperature 71 °F 67 °F  
Max Temperature 77 °F 80 °F 95 °F (1940)
Min Temperature 64 °F 55 °F 38 °F (1897)
Degree Days  
Heating Degree Days 0 2  
Month to date heating degree days 16 13  
Since 1 July heating degree days 16 14  
Cooling Degree Days 6 4  
Month to date cooling degree days 116 136  
Year to date cooling degree days 1621 1335  
Growing Degree Days 20 (Base 50)    
Moisture  
Dew Point 64 °F    
Average Humidity 77    
Maximum Humidity 93    
Minimum Humidity 60    
Precipitation  
Precipitation T in 0.10 in 4.39 in (1924)
Month to date precipitation 3.43 2.02  
Year to date precipitation 48.41 32.94  
Snow  
Snow 0.00 in 0.00 in 0.00 in ()
Month to date snowfall 0.0 0.0  
Since 1 July snowfall 0.0 0.0  
Since 1 September snowfall 0.0 0.0  
Snow Depth 0.00 in    
Sea Level Pressure  
Sea Level Pressure 30.03 in    
Wind  
Wind Speed 4 mph (SE)    
Max Wind Speed 9 mph    
Max Gust Speed 13 mph    
Visibility 4 miles    
Events Fog , Rain    
T = Trace of Precipitation, MM = Missing Value Source: NWS Daily Summary

Daily Weather History Graph

Daily Weather History Graph

Search for Another Location

Airport or City:

Trip Planner

Search our weather history database for the weather conditions in past years. The results will help you decide how hot, cold, wet, or windy it might be!

Date:

Astronomy

Sep. 20, 2011 Rise Set
Actual Time 6:35 AM CDT 6:50 PM CDT
Civil Twilight 6:09 AM CDT 7:16 PM CDT
Nautical Twilight 5:38 AM CDT 7:47 PM CDT
Astronomical Twilight 5:07 AM CDT 8:18 PM CDT
Moon No Moon Rise 2:08 PM CDT (9/20)
Length of Visible Light 13h 07m
Length of Day
12h 14m
Waning Gibbous, 48% of the Moon is Illuminated
Sep 20
Waning Gibbous
Sep 27
New
Oct 3
First Quarter
Oct 11
Full
Oct 19
Last Quarter

Hourly Weather History & Observations

Time (CDT) Temp. Dew Point Humidity Pressure Visibility Wind Dir Wind Speed Gust Speed Precip Events Conditions
12:15 AM 66.2 °F 64.4 °F 94% 30.04 in 5.0 mi Calm Calm - N/A   Overcast
12:24 AM 68.0 °F 64.4 °F 88% 30.04 in 4.0 mi Calm Calm - N/A   Overcast
12:54 AM 66.0 °F 64.0 °F 93% 30.02 in 4.0 mi Calm Calm - N/A   Overcast
1:03 AM 66.2 °F 64.4 °F 94% 30.03 in 1.8 mi Calm Calm - N/A   Mostly Cloudy
1:09 AM 66.2 °F 64.4 °F 94% 30.03 in 0.8 mi Calm Calm - N/A   Mostly Cloudy
1:28 AM 64.4 °F 62.6 °F 94% 30.03 in 1.0 mi Calm Calm - N/A   Overcast
1:31 AM 64.4 °F 62.6 °F 94% 30.03 in 2.0 mi Calm Calm - N/A   Overcast
1:39 AM 64.4 °F 62.6 °F 94% 30.03 in 4.0 mi ENE 3.5 mph - N/A   Mostly Cloudy
1:48 AM 64.4 °F 62.6 °F 94% 30.02 in 2.5 mi Calm Calm - N/A   Mostly Cloudy
1:51 AM 64.4 °F 62.6 °F 94% 30.02 in 1.2 mi NE 3.5 mph - N/A   Mostly Cloudy
1:54 AM 64.9 °F 63.0 °F 93% 30.02 in 0.5 mi NNE 3.5 mph - N/A Fog Fog
2:18 AM 64.4 °F 64.4 °F 100% 30.03 in 0.5 mi Calm Calm - N/A Fog Fog
2:26 AM 66.2 °F 64.4 °F 94% 30.03 in 0.2 mi Calm Calm - N/A Fog Fog
2:39 AM 66.2 °F 64.4 °F 94% 30.03 in 0.5 mi Calm Calm - N/A Fog Fog
2:52 AM 66.2 °F 64.4 °F 94% 30.03 in 1.5 mi Calm Calm - N/A   Overcast
2:54 AM 66.0 °F 64.0 °F 93% 30.02 in 2.0 mi Calm Calm - N/A   Overcast
3:04 AM 66.2 °F 64.4 °F 94% 30.03 in 4.0 mi Calm Calm - N/A   Overcast
3:16 AM 66.2 °F 62.6 °F 88% 30.03 in 4.0 mi Calm Calm - N/A   Overcast
3:38 AM 66.2 °F 64.4 °F 94% 30.03 in 3.0 mi Calm Calm - N/A   Overcast
3:47 AM 64.4 °F 62.6 °F 94% 30.03 in 1.8 mi ESE 3.5 mph - N/A   Overcast
3:52 AM 64.4 °F 62.6 °F 94% 30.03 in 0.8 mi SE 3.5 mph - N/A   Overcast
3:54 AM 64.9 °F 63.0 °F 93% 30.02 in 0.8 mi SE 4.6 mph - N/A   Overcast
4:03 AM 64.4 °F 62.6 °F 94% 30.03 in 1.5 mi SE 3.5 mph - N/A   Overcast
4:12 AM 64.4 °F 62.6 °F 94% 30.04 in 0.8 mi East 3.5 mph - N/A   Mist
4:54 AM 64.9 °F 63.0 °F 93% 30.04 in 1.8 mi Calm Calm - N/A   Overcast
5:00 AM 64.4 °F 62.6 °F 94% 30.05 in 3.0 mi Calm Calm - N/A   Overcast
5:10 AM 64.4 °F 62.6 °F 94% 30.05 in 2.5 mi Calm Calm - N/A   Overcast
5:54 AM 64.9 °F 63.0 °F 93% 30.05 in 3.0 mi Calm Calm - N/A   Overcast
6:07 AM 64.4 °F 62.6 °F 94% 30.06 in 2.5 mi Calm Calm - N/A   Overcast
6:19 AM 64.4 °F 62.6 °F 94% 30.06 in 2.5 mi Calm Calm - N/A   Overcast
6:29 AM 64.4 °F 62.6 °F 94% 30.07 in 3.0 mi Calm Calm - N/A   Overcast
6:54 AM 64.9 °F 63.0 °F 93% 30.06 in 2.5 mi NNE 3.5 mph - N/A   Overcast
7:51 AM 66.2 °F 62.6 °F 88% 30.07 in 2.0 mi ENE 4.6 mph - N/A   Overcast
7:54 AM 66.0 °F 63.0 °F 90% 30.06 in 2.0 mi East 4.6 mph - N/A   Overcast
8:46 AM 66.2 °F 62.6 °F 88% 30.08 in 2.0 mi ESE 4.6 mph - N/A   Overcast
8:54 AM 66.9 °F 64.0 °F 90% 30.07 in 2.0 mi ESE 5.8 mph - N/A   Overcast
9:49 AM 68.0 °F 64.4 °F 88% 30.08 in 2.0 mi East 8.1 mph - N/A   Overcast
9:54 AM 69.1 °F 64.0 °F 84% 30.07 in 2.0 mi ESE 6.9 mph - N/A   Haze
9:59 AM 69.8 °F 64.4 °F 83% 30.08 in 6.0 mi ESE 8.1 mph - N/A   Haze
10:29 AM 69.8 °F 64.4 °F 83% 30.07 in 7.0 mi SE 5.8 mph - N/A   Overcast
10:54 AM 70.0 °F 63.0 °F 78% 30.06 in 7.0 mi SE 5.8 mph - N/A   Overcast
11:38 AM 69.8 °F 64.4 °F 83% 30.07 in 5.0 mi SE 5.8 mph - N/A   Haze
11:54 AM 70.0 °F 64.0 °F 81% 30.06 in 5.0 mi SE 5.8 mph - N/A   Haze
12:54 PM 73.0 °F 63.0 °F 71% 30.04 in 9.0 mi South 4.6 mph - N/A   Overcast
1:49 PM 73.4 °F 64.4 °F 73% 30.03 in 9.0 mi ESE 5.8 mph - N/A   Overcast
1:54 PM 73.4 °F 62.6 °F 69% 30.02 in 9.0 mi ESE 5.8 mph - N/A   Overcast
2:54 PM 77.0 °F 63.0 °F 62% 29.99 in 6.0 mi SSE 5.8 mph - N/A   Haze
3:54 PM 75.0 °F 63.0 °F 66% 29.99 in 10.0 mi SE 8.1 mph - N/A   Overcast
4:37 PM 73.4 °F 64.4 °F 73% 30.00 in 10.0 mi SSE 4.6 mph - N/A   Overcast
4:54 PM 73.9 °F 64.0 °F 71% 29.99 in 10.0 mi South 5.8 mph - N/A   Overcast
5:07 PM 73.4 °F 62.6 °F 69% 30.00 in 10.0 mi South 6.9 mph - N/A   Overcast
5:54 PM 72.0 °F 63.0 °F 73% 30.00 in 9.0 mi SSE 4.6 mph - 0.00 in Rain Light Rain
6:54 PM 71.1 °F 64.0 °F 78% 30.00 in 9.0 mi SSE 6.9 mph - 0.00 in   Overcast
7:54 PM 69.8 °F 64.4 °F 83% 30.01 in 8.0 mi SE 3.5 mph - N/A   Overcast
8:29 PM 69.8 °F 64.4 °F 83% 30.02 in 10.0 mi SSE 3.5 mph - N/A   Overcast
8:54 PM 70.0 °F 64.0 °F 81% 30.01 in 9.0 mi South 3.5 mph - N/A   Overcast
9:04 PM 69.8 °F 64.4 °F 83% 30.02 in 9.0 mi SSE 3.5 mph - N/A   Mostly Cloudy
9:40 PM 68.0 °F 64.4 °F 88% 30.02 in 7.0 mi SSE 3.5 mph - N/A   Overcast
9:54 PM 68.0 °F 64.0 °F 87% 30.01 in 7.0 mi SSE 3.5 mph - N/A   Mostly Cloudy
10:21 PM 66.2 °F 64.4 °F 94% 30.02 in 6.0 mi Calm Calm - N/A   Scattered Clouds
10:54 PM 68.0 °F 64.0 °F 87% 30.01 in 5.0 mi South 3.5 mph - N/A   Overcast
11:54 PM 69.1 °F 64.9 °F 87% 30.01 in 6.0 mi Calm Calm - N/A   Overcast